Weather History for KHDE - November, 2012

Change the Weather History Date:

Wednesday, November 21, 2012

  Actual Average Record
Temperature  
Mean Temperature 54 °F -  
Max Temperature 71 °F 45 °F 71 °F (2012)
Min Temperature 38 °F 23 °F -5 °F (1964)
Degree Days  
Heating Degree Days 10    
Growing Degree Days 4 (Base 50)    
Moisture  
Dew Point 31 °F    
Average Humidity 48    
Maximum Humidity 78    
Minimum Humidity 17    
Precipitation  
Precipitation 0.00 in - - ()
Sea Level Pressure  
Sea Level Pressure 29.94 in    
Wind  
Wind Speed 11 mph (SSW)    
Max Wind Speed 24 mph    
Max Gust Speed 31 mph    
Visibility 10 miles    
Events      
Averages and records for this station are not official NWS values.
T = Trace of Precipitation, MM = Missing Value Source: NWS Daily Summary

Daily Weather History Graph

Daily Weather History Graph

Search for Another Location

Airport or City:

Trip Planner

Search our weather history database for the weather conditions in past years. The results will help you decide how hot, cold, wet, or windy it might be!

Date:

Astronomy

Nov. 21, 2012 Rise Set
Actual Time 7:31 AM CST 5:15 PM CST
Civil Twilight 7:01 AM CST 5:45 PM CST
Nautical Twilight 6:28 AM CST 6:18 PM CST
Astronomical Twilight 5:55 AM CST 6:50 PM CST
Moon 1:33 PM CST (11/21) 12:50 AM CST (11/21)
Length of Visible Light 10h 43m
Length of Day
9h 44m
First Quarter, 62% of the Moon is Illuminated
Nov 21
First Quarter
Nov 28
Full
Dec 6
Last Quarter
Dec 13
New
Dec 19
First Quarter

Hourly Weather History & Observations

Time (CST) Temp. Windchill Dew Point Humidity Pressure Visibility Wind Dir Wind Speed Gust Speed Precip Events Conditions
12:15 AM 44.8 °F 40.4 °F 32.0 °F 61% 30.09 in 10.0 mi South 8.1 mph - N/A   Clear
12:35 AM 44.2 °F 40.3 °F 31.6 °F 61% 30.09 in 10.0 mi SSW 6.9 mph - N/A   Clear
12:55 AM 41.4 °F 36.2 °F 30.9 °F 66% 30.09 in 10.0 mi SSW 8.1 mph - N/A   Clear
1:15 AM 44.2 °F 39.2 °F 31.8 °F 62% 30.08 in 10.0 mi SSW 9.2 mph - N/A   Clear
1:35 AM 42.1 °F 36.6 °F 31.5 °F 66% 30.08 in 10.0 mi SSW 9.2 mph - N/A   Clear
1:55 AM 42.3 °F 37.3 °F 31.6 °F 66% 30.07 in 10.0 mi SW 8.1 mph - N/A   Clear
2:15 AM 44.1 °F 38.6 °F 32.5 °F 64% 30.07 in 10.0 mi SSW 10.4 mph - N/A   Clear
2:35 AM 44.2 °F 39.2 °F 32.4 °F 63% 30.07 in 10.0 mi SSW 9.2 mph - N/A   Clear
2:55 AM 43.7 °F 39.1 °F 32.5 °F 65% 30.07 in 10.0 mi SSW 8.1 mph - N/A   Clear
3:15 AM 44.2 °F 39.2 °F 33.1 °F 65% 30.07 in 10.0 mi SSW 9.2 mph - N/A   Clear
3:35 AM 43.2 °F 38.4 °F 32.7 °F 67% 30.07 in 10.0 mi SSW 8.1 mph - N/A   Clear
3:55 AM 41.5 °F 36.4 °F 32.5 °F 70% 30.06 in 10.0 mi SSW 8.1 mph - N/A   Clear
4:15 AM 43.0 °F 37.2 °F 33.6 °F 70% 30.05 in 10.0 mi South 10.4 mph - N/A   Clear
4:35 AM 43.2 °F 37.9 °F 33.6 °F 69% 30.04 in 10.0 mi SSW 9.2 mph - N/A   Clear
4:55 AM 43.3 °F 38.1 °F 33.8 °F 69% 30.04 in 10.0 mi South 9.2 mph - N/A   Clear
5:15 AM 43.7 °F 37.7 °F 33.8 °F 68% 30.03 in 10.0 mi South 11.5 mph - N/A   Clear
5:35 AM 43.0 °F 37.2 °F 33.4 °F 69% 30.03 in 10.0 mi SSW 10.4 mph - N/A   Clear
5:55 AM 43.7 °F 37.7 °F 33.8 °F 68% 30.03 in 10.0 mi South 11.5 mph - N/A   Clear
6:15 AM 43.5 °F 37.9 °F 33.6 °F 68% 30.02 in 10.0 mi South 10.4 mph - N/A   Clear
6:35 AM 42.6 °F 37.2 °F 33.4 °F 70% 30.02 in 10.0 mi South 9.2 mph - N/A   Clear
6:55 AM 39.7 °F 34.3 °F 32.0 °F 74% 30.04 in 10.0 mi SSW 8.1 mph - N/A   Clear
7:15 AM 40.3 °F 33.9 °F 32.5 °F 74% 30.03 in 10.0 mi SSW 10.4 mph - N/A   Clear
7:35 AM 38.7 °F 31.8 °F 32.2 °F 78% 30.04 in 10.0 mi South 10.4 mph - N/A   Clear
7:55 AM 40.6 °F 34.8 °F 32.9 °F 74% 30.04 in 10.0 mi South 9.2 mph - N/A   Clear
8:15 AM 41.9 °F 35.0 °F 32.9 °F 70% 30.04 in 10.0 mi South 12.7 mph - N/A   Clear
8:35 AM 44.4 °F 38.6 °F 34.0 °F 67% 30.04 in 10.0 mi South 11.5 mph - N/A   Clear
8:55 AM 45.7 °F 40.2 °F 34.7 °F 65% 30.03 in 10.0 mi South 11.5 mph - N/A   Clear
9:15 AM 48.0 °F - 35.2 °F 61% 30.03 in 10.0 mi SSW 12.7 mph 19.6 mph N/A   Clear
9:35 AM 49.8 °F - 35.6 °F 58% 30.02 in 10.0 mi SSW 13.8 mph - N/A   Clear
9:55 AM 52.2 °F - 35.4 °F 53% 30.02 in 10.0 mi South 16.1 mph 20.7 mph N/A   Clear
10:15 AM 53.8 °F - 33.8 °F 47% 30.02 in 10.0 mi SSW 15.0 mph 20.7 mph N/A   Clear
10:35 AM 55.4 °F - 32.4 °F 42% 30.01 in 10.0 mi SSW 21.9 mph 25.3 mph N/A   Clear
10:55 AM 56.8 °F - 31.3 °F 38% 30.00 in 10.0 mi SSW 17.3 mph 26.5 mph N/A   Clear
11:15 AM 58.5 °F - 32.0 °F 37% 29.98 in 10.0 mi South 19.6 mph 24.2 mph N/A   Clear
11:35 AM 61.2 °F - 31.5 °F 33% 29.97 in 10.0 mi South 21.9 mph 26.5 mph N/A   Clear
11:55 AM 62.8 °F - 30.9 °F 30% 29.95 in 10.0 mi South 17.3 mph 28.8 mph N/A   Clear
12:15 PM 64.9 °F - 31.3 °F 28% 29.93 in 10.0 mi South 20.7 mph 28.8 mph N/A   Clear
12:35 PM 65.7 °F - 30.2 °F 27% 29.93 in 10.0 mi SSW 24.2 mph 29.9 mph N/A   Clear
12:55 PM 66.4 °F - 29.3 °F 25% 29.91 in 10.0 mi SSW 24.2 mph 29.9 mph N/A   Clear
1:15 PM 67.3 °F - 28.8 °F 24% 29.90 in 10.0 mi SSW 23.0 mph 31.1 mph N/A   Clear
1:35 PM 68.4 °F - 28.0 °F 22% 29.89 in 10.0 mi SSW 23.0 mph 31.1 mph N/A   Clear
1:55 PM 69.3 °F - 27.0 °F 21% 29.88 in 10.0 mi SSW 23.0 mph 31.1 mph N/A   Clear
2:15 PM 69.8 °F - 27.7 °F 21% 29.87 in 10.0 mi SSW 21.9 mph 29.9 mph N/A   Clear
2:35 PM 70.5 °F - 27.3 °F 20% 29.86 in 10.0 mi South 20.7 mph - N/A   Clear
2:55 PM 70.9 °F - 26.6 °F 19% 29.86 in 10.0 mi SSW 19.6 mph 28.8 mph N/A   Clear
3:15 PM 71.2 °F - 25.7 °F 18% 29.85 in 10.0 mi SSW 19.6 mph 26.5 mph N/A   Clear
3:35 PM 71.4 °F - 24.3 °F 17% 29.84 in 10.0 mi SSW 24.2 mph 27.6 mph N/A   Clear
3:55 PM 71.6 °F - 23.7 °F 17% 29.84 in 10.0 mi SSW 18.4 mph 25.3 mph N/A   Clear
4:15 PM 71.1 °F - 24.4 °F 17% 29.84 in 10.0 mi SSW 16.1 mph 23.0 mph N/A   Clear
4:35 PM 69.8 °F - 25.2 °F 19% 29.83 in 10.0 mi SSW 13.8 mph 18.4 mph N/A   Clear
4:55 PM 68.0 °F - 25.0 °F 20% 29.83 in 10.0 mi SSW 10.4 mph - N/A   Clear
5:15 PM 64.6 °F - 25.0 °F 22% 29.83 in 10.0 mi SSW 8.1 mph - N/A   Clear
5:35 PM 61.0 °F - 25.2 °F 25% 29.83 in 10.0 mi SSW 6.9 mph - N/A   Clear
5:55 PM 56.5 °F - 24.3 °F 29% 29.83 in 10.0 mi Calm Calm - N/A   Clear
6:15 PM 55.9 °F - 24.3 °F 29% 29.83 in 10.0 mi SSE 3.5 mph - N/A   Clear
6:35 PM 54.5 °F - 24.6 °F 31% 29.82 in 10.0 mi SSE 6.9 mph - N/A   Clear
6:55 PM 51.4 °F - 24.8 °F 35% 29.82 in 10.0 mi SSE 6.9 mph - N/A   Clear
7:15 PM 51.6 °F - 26.4 °F 38% 29.82 in 10.0 mi SSE 8.1 mph - N/A   Clear
7:35 PM 51.3 °F - 28.0 °F 41% 29.82 in 10.0 mi SSE 8.1 mph - N/A   Clear
7:55 PM 48.7 °F - 28.2 °F 45% 29.81 in 10.0 mi SSE 6.9 mph - N/A   Clear
8:15 PM 49.6 °F - 28.6 °F 44% 29.82 in 10.0 mi South 8.1 mph - N/A   Clear
8:35 PM 49.3 °F - 30.0 °F 48% 29.80 in 10.0 mi South 9.2 mph - N/A   Clear
8:55 PM 49.1 °F - 30.4 °F 49% 29.80 in 10.0 mi South 8.1 mph - N/A   Clear
9:15 PM 49.1 °F - 31.5 °F 51% 29.80 in 10.0 mi South 9.2 mph - N/A   Clear
9:35 PM 52.9 °F - 33.1 °F 47% 29.79 in 10.0 mi South 11.5 mph - N/A   Clear
9:55 PM 52.5 °F - 32.9 °F 47% 29.79 in 10.0 mi South 8.1 mph - N/A   Clear
10:15 PM 53.6 °F - 33.4 °F 46% 29.79 in 10.0 mi SSW 11.5 mph - N/A   Clear
10:35 PM 53.1 °F - 33.8 °F 48% 29.79 in 10.0 mi South 10.4 mph - N/A   Clear
10:55 PM 51.6 °F - 33.8 °F 51% 29.78 in 10.0 mi SSW 10.4 mph - N/A   Clear
11:15 PM 48.0 °F - 33.1 °F 56% 29.78 in 10.0 mi SSW 8.1 mph - N/A   Clear
11:35 PM 47.7 °F - 33.6 °F 58% 29.77 in 10.0 mi SSW 10.4 mph - N/A   Clear
11:55 PM 47.5 °F - 33.8 °F 59% 29.78 in 10.0 mi SW 9.2 mph - N/A   Clear